Grand Junction, CO

8:13 PM MST on November 23, 2017 (GMT -0700)
Walker

Weather History for KGJT - March, 2011

Change the Weather History Date:

Friday, March 11, 2011

  Actual Average Record
Temperature  
Mean Temperature 50 °F 43 °F  
Max Temperature 66 °F 55 °F 73 °F (1900)
Min Temperature 33 °F 31 °F 5 °F (1948)
Degree Days  
Heating Degree Days 15 22  
Month to date heating degree days 248 259  
Since 1 July heating degree days 4448 4638  
Cooling Degree Days 0 0  
Month to date cooling degree days 0 0  
Year to date cooling degree days 0 0  
Moisture  
Dew Point 25 °F    
Average Humidity 41    
Maximum Humidity 64    
Minimum Humidity 18    
Precipitation  
Precipitation 0.00 in 0.03 in 0.31 in (2001)
Month to date precipitation 0.14 0.28  
Year to date precipitation 0.58 1.40  
Snow  
Snow 0.00 in 0.10 in 2.50 in (2001)
Month to date snowfall 0.1 0.9  
Since 1 July snowfall 12.9 16.4  
Snow Depth 0.00 in    
Sea Level Pressure  
Sea Level Pressure 29.95 in    
Wind  
Wind Speed 6 mph (ENE)    
Max Wind Speed 15 mph    
Max Gust Speed 16 mph    
Visibility 10 miles    
Events      
T = Trace of Precipitation, MM = Missing Value Source: NWS Daily Summary

Daily Weather History Graph

Daily Weather History Graph

Search for Another Location

Airport or City:

Trip Planner

Search our weather history database for the weather conditions in past years. The results will help you decide how hot, cold, wet, or windy it might be!

Date:

Astronomy

Mar. 11, 2011 Rise Set
Actual Time 6:31 AM MST 6:16 PM MST
Civil Twilight 6:05 AM MST 6:43 PM MST
Nautical Twilight 5:34 AM MST 7:14 PM MST
Astronomical Twilight 5:03 AM MST 7:45 PM MST
Moon 9:51 AM MST (3/11) 12:11 AM MST (3/11)
Length of Visible Light 12h 38m
Length of Day
11h 44m
Waxing Crescent, 38% of the Moon is Illuminated
Mar 11
Waxing Crescent
Mar 12
First Quarter
Mar 19
Full
Mar 26
Last Quarter
Apr 3
New

Hourly Weather History & Observations

Time (MST) Temp. Windchill Dew Point Humidity Pressure Visibility Wind Dir Wind Speed Gust Speed Precip Events Conditions
12:53 AM 42.1 °F 37.7 °F 25.0 °F 51% 29.99 in 10.0 mi ENE 6.9 mph - N/A   Clear
1:53 AM 39.9 °F - 27.0 °F 60% 30.00 in 10.0 mi Calm Calm - N/A   Clear
2:53 AM 37.0 °F 31.6 °F 25.0 °F 62% 30.00 in 10.0 mi East 6.9 mph - N/A   Clear
3:53 AM 39.0 °F 34.0 °F 24.1 °F 55% 29.98 in 10.0 mi East 6.9 mph - N/A   Clear
4:53 AM 37.9 °F 34.4 °F 24.1 °F 57% 29.99 in 10.0 mi SSW 4.6 mph - N/A   Clear
5:53 AM 37.0 °F 32.4 °F 24.1 °F 59% 30.01 in 10.0 mi ESE 5.8 mph - N/A   Clear
6:53 AM 35.1 °F 30.1 °F 25.0 °F 67% 30.01 in 10.0 mi SE 5.8 mph - N/A   Clear
7:53 AM 39.9 °F 36.7 °F 27.0 °F 60% 30.04 in 10.0 mi SE 4.6 mph - N/A   Clear
8:53 AM 41.0 °F 39.0 °F 28.0 °F 60% 30.06 in 10.0 mi WNW 3.5 mph - N/A   Clear
9:53 AM 50.0 °F - 27.0 °F 41% 30.04 in 10.0 mi SSE 4.6 mph - N/A   Clear
10:53 AM 55.0 °F - 26.1 °F 33% 30.00 in 10.0 mi Calm Calm - N/A   Clear
11:53 AM 60.1 °F - 25.0 °F 26% 29.98 in 10.0 mi WNW 6.9 mph - N/A   Clear
12:53 PM 63.0 °F - 24.1 °F 23% 29.95 in 10.0 mi NW 10.4 mph - N/A   Clear
1:53 PM 64.0 °F - 25.0 °F 23% 29.92 in 10.0 mi NW 9.2 mph - N/A   Clear
2:53 PM 64.9 °F - 23.0 °F 20% 29.90 in 10.0 mi Variable 6.9 mph 16.1 mph N/A   Clear
3:53 PM 64.0 °F - 21.0 °F 19% 29.87 in 10.0 mi NW 4.6 mph - N/A   Clear
4:53 PM 64.0 °F - 19.9 °F 18% 29.86 in 10.0 mi Variable 4.6 mph - N/A   Clear
5:53 PM 62.1 °F - 21.0 °F 21% 29.85 in 10.0 mi NNE 3.5 mph - N/A   Clear
6:53 PM 52.0 °F - 24.1 °F 34% 29.89 in 10.0 mi NNE 4.6 mph - N/A   Clear
7:53 PM 54.0 °F - 21.9 °F 29% 29.89 in 10.0 mi North 6.9 mph - N/A   Clear
8:53 PM 48.0 °F - 24.1 °F 39% 29.91 in 10.0 mi ENE 4.6 mph - N/A   Clear
9:53 PM 46.0 °F 43.9 °F 26.1 °F 46% 29.90 in 10.0 mi SE 4.6 mph - N/A   Clear
10:53 PM 45.0 °F 43.5 °F 26.1 °F 48% 29.87 in 10.0 mi East 3.5 mph - N/A   Clear
11:53 PM 46.0 °F 39.6 °F 26.1 °F 46% 29.85 in 10.0 mi East 15.0 mph - N/A   Clear